User: anonymous   Login
Location: Unspecified
(44.0704°N, 88.6889°W)
Time: 10:37:14
(UTC+02:00)
Language:

Transit 2A - Orbit

View from above orbital plane
View from above orbital plane
View from above satellite
View from above satellite

Ground track
Ground track

The orbit data is extracted from the following two-line orbital elements,

1    45U 60007A   19166.80301863 -.00000053 +00000-0 +13984-4 0  9992
2    45 066.6948 269.7150 0260981 224.4410 133.5489 14.33640643013138
Epoch (UTC): 15 June 2019 19:16:20
Eccentricity: 0.0260981
inclination: 66.6948°
perigee height: 593 km
apogee height: 966 km
right ascension of ascending node: 269.7150°
argument of perigee: 224.4410°
revolutions per day: 14.33640643
mean anomaly at epoch: 133.5489°
orbit number at epoch: 1313

The dashed part of the orbit path shows where the satellite is in the earth's shadow,  

DLR